This is the latest recevied weather packets stored in our database for station/object VK2XSE. If no packets are shown the sender has not sent any weather packets the latest 10 day(s).
| Time | Temp. | Humidity | Pressure | Rain* | Wind** | Luminosity | Snow |
|---|---|---|---|---|---|---|---|
| 1777280118 | 21.11° C | 38% | 1022.8 hPa | 0 mm | - | 0 W/m² | - |
| 1777279518 | 21.11° C | 40% | 1022.7 hPa | 0 mm | - | 0 W/m² | - |
| 1777278918 | 21.67° C | 37% | 1022.7 hPa | 0 mm | - | 0 W/m² | - |
| 1777278318 | 22.22° C | 39% | 1022.6 hPa | 0 mm | - | 0 W/m² | - |
| 1777277718 | 22.22° C | 36% | 1022.5 hPa | 0 mm | - | 0 W/m² | - |
| 1777277118 | 22.78° C | 35% | 1022.4 hPa | 0 mm | - | 0 W/m² | - |
| 1777276518 | 23.33° C | 35% | 1022.4 hPa | 0 mm | - | 0 W/m² | - |
| 1777275918 | 23.89° C | 36% | 1022.3 hPa | 0 mm | - | 0 W/m² | - |
| 1777275318 | 24.44° C | 38% | 1022.3 hPa | 0 mm | - | 6 W/m² | - |
| 1777274718 | 24.44° C | 33% | 1022.2 hPa | 0 mm | - | 11 W/m² | - |
| 1777274118 | 25° C | 34% | 1022.1 hPa | 0 mm | - | 14 W/m² | - |
| 1777273518 | 25.56° C | 32% | 1022.1 hPa | 0 mm | - | 19 W/m² | - |
| 1777272918 | 25.56° C | 33% | 1022.2 hPa | 0 mm | - | 77 W/m² | - |
| 1777272318 | 25.56° C | 32% | 1022.1 hPa | 0 mm | - | 107 W/m² | - |
| 1777271718 | 26.11° C | 31% | 1022.1 hPa | 0 mm | - | 142 W/m² | - |
| 1777271118 | 26.11° C | 30% | 1022.1 hPa | 0 mm | - | 175 W/m² | - |
| 1777270518 | 26.11° C | 30% | 1022.2 hPa | 0 mm | - | 202 W/m² | - |
| 1777269918 | 26.67° C | 30% | 1022.2 hPa | 0 mm | - | 230 W/m² | - |
| 1777269317 | 26.67° C | 28% | 1022.1 hPa | 0 mm | - | 261 W/m² | - |
| 1777268718 | 26.67° C | 29% | 1022 hPa | 0 mm | - | 289 W/m² | - |
| 1777268118 | 26.67° C | 29% | 1022.1 hPa | 0 mm | - | 314 W/m² | - |
| 1777267518 | 26.67° C | 29% | 1022.2 hPa | 0 mm | - | 343 W/m² | - |
| 1777266918 | 27.22° C | 30% | 1022.2 hPa | 0 mm | - | 366 W/m² | - |
| 1777266318 | 27.22° C | 29% | 1022.1 hPa | 0 mm | - | 393 W/m² | - |
| 1777265718 | 26.67° C | 29% | 1022.2 hPa | 0 mm | - | 421 W/m² | - |
* Rain latest hour (hover to see other rain measurements)
** Current wind speed in m/s (hover to see current wind gust speed)